Погода в Чернушке

Погода в Чернушке : погода сейчас, прогноз погоды и архив. Всё, что Вы хотите узнать о погоде в Чернушке!

Хотите узнать прогноз погоды в Чернушке? Тогда Вам сюда: Погода в Чернушке

Поиск расширенной информации на нашем сайте:

Другие новости

Новости СМИ2

Главная страница сайта

Новости сайта

03.07.2017

Напоминаем, что на нашем специализированном сайте Метеоцентр.Азия вы можете получить высокодетализированные автоматические прогнозы погоды по пунктам России, СНГ и мира в авиационном формате (включающие направление и скорость ветра, видимость, явления погоды, количество и форму облачности, нижнюю и верхнюю границу облачности).


Погода в Чернушке - сегодня

Время (UTC), дата Ветер
(°,м/с) 
Видим.   Явления Облачность Т
(°С)
Тd
(°С)
f(%) Тe
(°С)
Pmin
(гПа)
dP
(гПа)
Po
(мм)
O2
(г/м3)
Тmin Tmax R s Состояние
почвы
00 19.09.17 130 (ЮВ) 20000 м  в посл. час дождь  10/10 600 м 
[Sc]
+9.7 +8.9 95 +10  1019.3  -1.1  751  291           
06 19.09.17 200 (Ю) 20000 м    10/0 верхняя 
[Ci fib]
+15.7 +10.1 69 +17  1015.6  -1.3  749  283           
09 19.09.17 210 (ЮЗ) 20000 м    10/0 верхняя 
[Ci fib]
+21.5 +11.3 52 +24  1013.9  -1.3  748  277           
12 19.09.17 190 (Ю) 20000 м    10/3 600 м верхняя 
[Sc|Ci fib]
+24.9 +13.3 48 +31  1011.7  -1.3  746  273           
18 19.09.17 200 (Ю) 20000 м  в посл. час гроза{ливн. осадки}  6/6 600 м кучево-дожд. 
[Cb cap]
+18.7 +11.2 62 +22  1011.4  -0.2  746  279           
21 19.09.17 240 (ЮЗ) 20000 м    3/0 верхняя 
[Ci fib]
+16.1 +9.7 66 +18  1012.3  0.7  746  282           
00 20.09.17 250 (З) 20000 м    ясно 
+12.9 +9.2 78 +13  1013.8  1.3  747  286           
06 20.09.17 250 (З) 20000 м    1/1 600 м 
[Sc]
+16.4 +9.4 63 +16  1016.9  1.5  750  283           
09 20.09.17 270 (З) 5{11}  20000 м    10/10 600 м 
[Sc]
+16.6 +7.5 55 +16  1017.4  0.5  750  284           
12 20.09.17 280 (З) 20000 м    10/10 600 м 
[Sc]
+15.4 +7.7 60 +15  1018.7  1.1  751  285           
18 20.09.17 250 (З) 20000 м    8/8 600 м 
[Sc]
+9.9 +7.4 84 +10  1020.6  0.7  752  291           
21 20.09.17 300 (СЗ) 20000 м    10/10 600 м 
[Sc]
+8.9 +8 94 +10  1020.8  0.1  752  292           
00 21.09.17 270 (З) 20000 м    10/10 600 м 
[Sc]
+10.3 +8.6 89 +11  1021.4  0.6  752  291           
06 21.09.17 280 (З) 10 км  в посл. час ливневой дождь  10/10 600 м кучево-дожд. 
[Cb cap]
+11.8 +10.5 92 +14  1023  0.7  754  289           
09 21.09.17 350 (С) 20000 м  {ливн. осадки}  10/10 600 м кучево-дожд. 
[Cb cap]
+11.7 +7.4 75 +11  1024.4  1.4  755  290           
12 21.09.17 010 (С) 20000 м  {ливн. осадки}  10/10 600 м кучево-дожд. 
[Cb cap]
+10.6 +5.4 70 +10  1025.5  756  292           
18 21.09.17 350 (С) 20000 м  {ливн. осадки}  10/10 600 м 
[Sc]
+7.1 +5.9 92 +7  1027.4  0.7  757  296           
21 21.09.17 030 (СВ) 20000 м  в посл. час ливневой дождь  10/10 600 м кучево-дожд. 
[Cb cap]
+7.6 +6.5 93 +7  1028.1  0.7  757  296           
00 22.09.17 040 (СВ) 20000 м  {ливн. осадки}  9/9 600 м кучево-дожд. 
[Cb cap]
+7 +5.2 88 +6  1030  1.7  759  297           
06 22.09.17 040 (СВ) 20000 м    10/10 600 м кучево-дожд. 
[Cb cap]
+8.7 +2.9 67 +8  1033.4  1.1  761  297           
09 22.09.17 040 (СВ) 20000 м    9/9 600 м кучево-дожд. 
[Cb cap]
+10.9 +2.1 55 +11  1033.2  761  295           
12 22.09.17 020 (С) 20000 м    4/4 600 м кучево-дожд. 
[Cb cap]
+9.2 +2.7 64 +9  1034.4  1.1  762  297           
18 22.09.17 030 (СВ) 20000 м    10/10 600 м 
[Sc]
+4.5 +1.3 80 +3  1037  0.9  764  303           
21 22.09.17 040 (СВ) 20000 м    10/10 600 м 
[Sc]
+4.5 +1.4 80 +4  1037.6  0.6  764  303           
00 23.09.17 050 (СВ) 20000 м    10/10 600 м 
[Sc]
+4.1 +0.6 78 +4  1038.4  0.7  765  303           
Время (UTC), дата Ветер
(°,м/с) 
Видим.   Явления Облачность Т
(°С)
Тd
(°С)
f(%) Тe
(°С)
Pmin
(гПа)
dP
(гПа)
Po
(мм)
O2
(г/м3)
Тmin Tmax R s Состояние
почвы

Для получения пояснительной информации подведите курсор к названию столбца.

ПОГОДА в Чернушке - архив

Всё, что Вы хотите узнать о погоде в Чернушке - удобно и подробно!

Выберите нужную дату (начиная с 1 января 2015* года) и нажмите кнопку "Найти".
Будут отображены архивные сводки погоды по пункту Чернушка, начиная с указанной даты.


Отображать данные в формате CSV (для использования в таблицах Excel)


Внимание! Наш архив погоды предназначен исключительно для личного некоммерческого использования в познавательных целях. Если Вам необходимы официальные справки о состоянии погоды (для производственных, юридических, коммерческих и т.п. целей), обращайтесь в органы Росгидромета.

*Примечание: данная дата относится к архиву по метеостанциям СССР (Россия, СНГ, Балтия).
Архив по метеостанциям Зарубежной Европы и Азии (кроме Китая) хранится 10 дней, по другим регионам земного шара (Китай, Африка, Америка, Австралия, Океания) - 1 день.

Чернушка - район местоположения метеостанции


Название, широта, долгота, высота метеостанции:
Чернушка 56.5°ш. 56.1°д. 148 м над ур. моря [Российская Федерация]

Дополнительная информация

В oтличие oт бoльшинства пoгoдных сайтoв мы публикуем пoдрoбную метеoинфoрмацию в детальнoм прoфессиoнальнoм фoрмате.

Характеристики температуры и влажнoсти вoздуха измеряются на высoте 2 м в тени вдали oт зданий и деревьев.
Скoрoсть ветра измеряется на высoте 10 м (на урoвне рoста челoвека скoрoсть ветра ниже в 1.5-2 раза). Если метеoстанция нахoдится в гoрoде или в лесу, тo скoрoсть ветра занижена на 2-4 м/с пo сравнению с oткрытым местoм. Скoрoсть ветра над акватoриями крупных рек и oзёр, а также на вершинах хoлмoв на 2-5 м/с выше, чем в oбычных услoвиях.
Атмoсфернoе давление в разных тoчках местнoсти мoжет значительнo oтличаться oт давления на метеoстанции, в зависимoсти oт услoвий рельефа (при пoдъёме на 10 м давление пoнижается примернo на 1 мм рт.ст.).